#timestamp,LO_Frequency,Hit,StdDev 
1552374016.4,286047003.5,N
1552374035.4,286047001.6,N
1552374055.2,286046999.9,N
1552374075.0,286046999.5,N
1552374075.9,286046999.5,N
1552374095.8,286046997.3,N
1552374116.2,286046993.9,Y
1552374135.1,286046994.0,P
1552374155.9,286046995.5,N
1552374175.7,286046997.2,N
1552374195.6,286046998.0,N
1552374215.4,286046997.2,N
1552374235.2,286046995.0,N
1552374255.1,286046997.8,N
1552374256.0,286046997.8,N
1552374275.8,286046998.0,N
1552374295.6,286046997.7,N
1552374315.5,286046997.4,N
1552374335.3,286046997.2,N
1552374355.2,286046997.2,N
1552374375.9,286046995.0,Y
1552374395.7,286047000.2,P
1552374415.6,286046999.7,N
1552374435.4,286047002.4,N
1552374455.3,286047011.9,Y
1552374475.1,286046999.7,P
1552374476.0,286046999.7,P
1552374495.8,286046998.5,P
1552374515.7,286046997.8,Y
1552374535.5,286046996.4,P
1552374555.3,286046994.8,P
1552374575.2,286046992.6,P
1552374595.0,286046992.6,N
1552374595.9,286046992.6,N
1552374615.8,286046992.3,Y
1552374635.6,286046998.4,P
1552374655.4,286046998.4,N
1552374675.3,286047000.7,N
1552374695.1,286047002.7,N
1552374715.9,286047002.7,N
1552374735.7,286047001.1,N
1552374755.5,286046999.0,N
1552374775.4,286046999.6,N
1552374795.2,286046997.7,N
1552374815.0,286046999.1,N
1552374815.9,286046999.1,N
1552374835.8,286046998.5,N
1552374855.6,286047000.8,N
1552374875.5,286046998.5,N
1552374895.3,286046999.1,N
1552374915.1,286046998.9,N
1552374935.9,286046998.4,N
1552374955.7,286047000.5,N
1552374975.5,286047000.6,N
1552374995.4,286046999.9,N
1552375015.2,286047001.4,N
1552375035.1,286047005.8,Y
1552375036.0,286047005.8,P
1552375055.8,286047006.1,N
1552375075.6,286047009.1,N
1552375095.5,286047010.4,N
1552375115.3,286047008.5,N
1552375135.2,286047007.8,N
1552375155.9,286047010.4,Y
1552375175.7,286047002.3,P
1552375195.6,286047000.3,N
1552375245.4,286046998.4,E
1552375255.4,286046998.4,N
1552375275.2,286046999.4,P
1552375295.1,286046995.3,P
1552375296.0,286046995.3,N
1552375315.8,286046993.7,Y
1552375335.6,286046995.3,P
1552375355.5,286046995.9,P
1552375375.3,286046991.7,P
1552375395.2,286046992.3,Y
1552375415.9,286046996.0,P
1552375435.7,286046996.4,P
1552375455.6,286046993.5,P
1552375475.4,286046994.2,Y
1552375495.2,286047000.8,P
1552375515.1,286046998.9,N
1552375516.0,286046998.9,N
1552375535.8,286046995.0,N
1552375555.7,286046993.9,N
1552375575.5,286046994.4,N
1552375595.3,286046994.0,N
1552375615.2,286046994.8,N
1552375635.0,286046992.2,Y
1552375635.9,286046992.2,P
1552375655.8,286046995.0,N
1552375675.6,286046997.8,N
1552375695.4,286046995.0,N
1552375715.3,286046996.0,N
1552375735.1,286046994.0,Y
1552375755.8,286046997.5,P
1552375775.7,286046996.0,P
1552375795.5,286046995.7,P
1552375815.4,286046996.0,Y
1552375835.2,286046999.5,P
1552375855.0,286046997.6,N
1552375855.9,286046997.6,N
1552375875.8,286046996.9,N
1552375895.6,286046995.0,Y
1552375915.5,286046997.4,P
1552375935.3,286046997.2,P
1552375955.1,286046997.5,P
1552375975.9,286046997.6,Y
1552375995.7,286046997.0,P
1552376015.5,286046997.2,P
1552376035.4,286046999.4,P
1552376055.2,286046995.3,Y
1552376075.1,286046996.7,P
1552376076.0,286046996.7,P
1552376095.8,286046997.7,P
1552376115.6,286046995.4,Y
1552376135.5,286046999.6,P
1552376155.3,286046996.7,N
1552376175.2,286046997.3,N
1552376195.9,286046997.8,N
1552376215.7,286046998.4,N
1552376235.6,286047001.2,N
1552376255.4,286047001.0,N
1552376275.2,286046998.4,N
1552376295.1,286046999.3,N
1552376296.0,286046999.3,N
1552376315.8,286046997.7,N
1552376335.7,286046997.9,N
1552376355.5,286046997.6,N
1552376375.3,286046996.6,N
1552376395.2,286046997.1,N
1552376415.0,286046999.6,N
1552376415.9,286046999.6,N
1552376435.8,286046996.9,N
1552376455.6,286046997.1,N
1552376475.4,286046997.9,N
1552376495.3,286046997.3,N
1552376515.1,286046997.8,N
1552376535.8,286046995.1,Y
1552376555.7,286046997.1,P
1552376575.5,286046997.2,P
1552376595.4,286046997.6,P
1552376615.2,286046995.8,Y
1552376635.0,286046997.7,P
1552376635.9,286046997.7,P
1552376655.8,286046997.9,P
1552376675.6,286046997.9,Y
1552376695.5,286046998.6,P
1552376715.3,286047001.2,N
1552376735.1,286047000.0,N
1552376755.9,286047002.5,N
1552376775.7,286047001.6,N
1552376795.5,286047001.6,N
1552376815.4,286047000.0,N
1552376835.2,286047002.8,N
1552376855.1,286047002.8,N
1552376856.0,286047002.8,N
1552376875.8,286047000.3,N
1552376895.6,286047000.9,N
1552376915.5,286046998.9,N
1552376935.3,286046999.1,N
1552376955.2,286046999.3,N
1552376975.9,286046996.6,N
1552376995.7,286047000.6,N
1552377015.6,286047001.6,N
1552377035.4,286047001.3,N
1552377055.2,286047002.9,N
1552377075.1,286047005.1,N
1552377076.0,286047005.1,N
1552377095.8,286047006.3,Y
1552377115.7,286047005.4,P
1552377135.5,286047003.3,N
1552377155.3,286047003.6,N
1552377175.2,286047001.7,N
1552377195.0,286047002.7,N
1552377195.9,286047002.7,N
1552377215.8,286047004.3,Y
1552377235.6,286047001.2,P
1552377255.4,286046996.5,P
1552377275.3,286046996.6,N
1552377295.1,286046998.0,N
1552377315.9,286046994.9,N
1552377335.7,286046995.8,N
1552377355.5,286046996.4,N
1552377375.4,286046993.5,N
1552377395.2,286046994.2,N
1552377415.0,286046992.3,N
1552377415.9,286046992.3,N
1552377435.8,286046991.9,N
1552377455.6,286046992.0,N
1552377475.5,286046994.4,N
1552377495.3,286046986.3,Y
1552377515.1,286046996.9,P
1552377535.9,286046998.9,N
1552377555.7,286047001.0,N
1552377575.5,286047001.0,N
1552377595.4,286047001.5,N
